| time (UTC) | temp C | wind direction | speed KPH | gust KPH | rain 1hr cm | rain 24hr cm | rain mn cm | humidity % | barometer mb |
| 20260504220003 | 25 | 235 | 8.0 | 19.3 | 0.00 | 0.00 | 0.00 | 42 | 1012.0 |
| 20260504214503 | 25 | 175 | 8.0 | 22.5 | 0.00 | 0.00 | 0.00 | 44 | 1011.9 |
| 20260504213002 | 25 | 173 | 11.3 | 22.5 | 0.00 | 0.00 | 0.00 | 44 | 1012.0 |
| 20260504211559 | 25 | 183 | 6.4 | 16.1 | 0.00 | 0.00 | 0.00 | 47 | 1012.1 |
| 20260504210059 | 24 | 171 | 12.9 | 20.9 | 0.00 | 0.00 | 0.00 | 43 | 1012.2 |
| 20260504204556 | 26 | 179 | 6.4 | 17.7 | 0.00 | 0.00 | 0.00 | 46 | 1012.2 |
| 20260504203054 | 25 | 277 | 6.4 | 22.5 | 0.00 | 0.00 | 0.00 | 47 | 1012.6 |
| 20260504201551 | 25 | 186 | 4.8 | 24.1 | 0.00 | 0.00 | 0.00 | 49 | 1012.7 |
| 20260504200054 | 25 | 201 | 8.0 | 22.5 | 0.00 | 0.00 | 0.00 | 46 | 1012.9 |
| 20260504194548 | 24 | 131 | 9.7 | 17.7 | 0.00 | 0.00 | 0.00 | 50 | 1013.1 |
| 20260504193045 | 25 | 194 | 6.4 | 17.7 | 0.00 | 0.00 | 0.00 | 47 | 1013.2 |
| 20260504191553 | 24 | 149 | 8.0 | 19.3 | 0.00 | 0.00 | 0.00 | 52 | 1013.3 |
| 20260504190049 | 25 | 207 | 9.7 | 17.7 | 0.00 | 0.00 | 0.00 | 49 | 1013.7 |
| 20260504184552 | 25 | 178 | 11.3 | 19.3 | 0.00 | 0.00 | 0.00 | 50 | 1013.8 |
| 20260504183047 | 25 | 246 | 11.3 | 19.3 | 0.00 | 0.00 | 0.00 | 48 | 1014.0 |
| 20260504181544 | 25 | 152 | 8.0 | 16.1 | 0.00 | 0.00 | 0.00 | 50 | 1014.3 |
| 20260504180034 | 25 | 276 | 4.8 | 14.5 | 0.00 | 0.00 | 0.00 | 54 | 1014.2 |
| 20260504174531 | 24 | 169 | 8.0 | 16.1 | 0.00 | 0.00 | 0.00 | 53 | 1014.5 |
| 20260504173029 | 24 | 238 | 6.4 | 17.7 | 0.00 | 0.00 | 0.00 | 52 | 1014.7 |
| 20260504171524 | 23 | 213 | 8.0 | 16.1 | 0.00 | 0.00 | 0.00 | 50 | 1015.0 |
| 20260504150103 | 21 | 245 | 6.4 | 17.7 | 0.00 | 0.00 | 0.00 | 61 | 1016.4 |
| 20260504081548 | 7 | 161 | 0.0 | 0.0 | 0.00 | 0.00 | 0.00 | 93 | 1016.2 |
| 20260504044530 | 8 | 161 | 0.0 | 0.0 | 0.00 | 0.00 | 0.00 | 89 | 1017.4 |
| 20260504043026 | 8 | 161 | 0.0 | 0.0 | 0.00 | 0.00 | 0.00 | 89 | 1017.3 |
| 20260504041524 | 8 | 161 | 0.0 | 0.0 | 0.00 | 0.00 | 0.00 | 89 | 1017.5 |
| 20260504040022 | 8 | 161 | 0.0 | 0.0 | 0.00 | 0.00 | 0.00 | 88 | 1017.3 |
| 20260504034529 | 8 | 161 | 0.0 | 0.0 | 0.00 | 0.00 | 0.00 | 85 | 1017.5 |
| 20260504033021 | 8 | 161 | 0.0 | 0.0 | 0.00 | 0.00 | 0.00 | 84 | 1017.5 |
| 20260504031521 | 8 | 161 | 0.0 | 0.0 | 0.00 | 0.00 | 0.00 | 85 | 1017.8 |
| 20260504030037 | 8 | 161 | 0.0 | 0.0 | 0.00 | 0.00 | 0.00 | 86 | 1017.8 |
| 20260504024520 | 8 | 161 | 0.0 | 1.6 | 0.00 | 0.00 | 0.00 | 87 | 1018.0 |
| 20260504023020 | 8 | 161 | 0.0 | 0.0 | 0.00 | 0.00 | 0.00 | 87 | 1018.0 |
| 20260504021518 | 9 | 161 | 0.0 | 0.0 | 0.00 | 0.00 | 0.00 | 87 | 1017.8 |
| 20260504020021 | 10 | 161 | 0.0 | 0.0 | 0.00 | 0.00 | 0.00 | 86 | 1017.7 |
| 20260504014532 | 10 | 161 | 0.0 | 0.0 | 0.00 | 0.00 | 0.00 | 84 | 1017.5 |
| 20260504013017 | 10 | 161 | 0.0 | 0.0 | 0.00 | 0.00 | 0.00 | 83 | 1017.3 |
| 20260504011517 | 11 | 161 | 0.0 | 1.6 | 0.00 | 0.00 | 0.00 | 79 | 1017.1 |
| 20260504010020 | 11 | 161 | 0.0 | 0.0 | 0.00 | 0.00 | 0.00 | 77 | 1017.1 |
| 20260504004515 | 12 | 161 | 0.0 | 0.0 | 0.00 | 0.00 | 0.00 | 75 | 1016.8 |
| 20260504003025 | 13 | 161 | 0.0 | 0.0 | 0.00 | 0.00 | 0.00 | 71 | 1016.8 |
| 20260504001512 | 13 | 205 | 0.0 | 1.6 | 0.00 | 0.00 | 0.00 | 68 | 1016.9 |
| 20260504000011 | 15 | 217 | 0.0 | 1.6 | 0.00 | 0.00 | 0.00 | 64 | 1017.0 |
| 20260503234522 | 15 | 217 | 0.0 | 3.2 | 0.00 | 0.00 | 0.00 | 57 | 1017.2 |
| 20260503233006 | 17 | 217 | 0.0 | 3.2 | 0.00 | 0.00 | 0.00 | 53 | 1017.3 |
| 20260503231506 | 17 | 217 | 1.6 | 4.8 | 0.00 | 0.00 | 0.00 | 50 | 1017.5 |
| 20260503230005 | 18 | 219 | 3.2 | 8.0 | 0.00 | 0.00 | 0.00 | 43 | 1017.6 |
| 20260503224503 | 18 | 184 | 3.2 | 11.3 | 0.00 | 0.00 | 0.00 | 42 | 1017.7 |
| 20260503223003 | 19 | 281 | 3.2 | 8.0 | 0.00 | 0.00 | 0.00 | 41 | 1017.8 |
| 20260503221503 | 19 | 316 | 1.6 | 11.3 | 0.00 | 0.00 | 0.00 | 42 | 1017.9 |